EZY139 EDDV-EDDK

Flight info

Callsign EZY139
Flight time 0h 32m
Altitude 24000
Route TOLTA1S TOLTA P12 ESADU T858 KOPAG KOPAG1B
Aircraft A20N/M-SDE2E3FGHIRWXY/LB1

Departure

Time 2026-04-26 19:02
Airport Hannover Airport (EDDV)

Arrival

Time 2026-04-26 19:34
Airport Cologne Bonn Airport (EDDK)
Time Latitude Longitude Altitude Speed Heading
2026-04-26 18:15 52.45766 9.69759 183 ft 0 kts 322°
2026-04-26 18:44 52.45756 9.69771 174 ft 4 kts 322°
2026-04-26 18:44 52.45737 9.69797 183 ft 2 kts 322°
2026-04-26 18:44 52.45717 9.69818 201 ft 4 kts 338°
2026-04-26 18:44 52.45693 9.69825 196 ft 4 kts 19°
2026-04-26 18:45 52.45675 9.69801 195 ft 4 kts 66°
2026-04-26 18:45 52.45671 9.69761 199 ft 4 kts 102°
2026-04-26 18:45 52.45676 9.69721 201 ft 2 kts 92°
2026-04-26 18:45 52.45676 9.69720 201 ft 0 kts 92°
2026-04-26 18:51 52.45675 9.69752 198 ft 4 kts 92°
2026-04-26 18:51 52.45673 9.69793 200 ft 3 kts 99°
2026-04-26 18:52 52.45642 9.69832 192 ft 9 kts 176°
2026-04-26 18:52 52.45610 9.69797 194 ft 8 kts 243°
2026-04-26 18:52 52.45606 9.69676 193 ft 9 kts 275°
2026-04-26 18:52 52.45611 9.69559 183 ft 12 kts 272°
2026-04-26 18:53 52.45614 9.69419 183 ft 13 kts 272°
2026-04-26 18:53 52.45618 9.69280 190 ft 12 kts 275°
2026-04-26 18:53 52.45637 9.69158 183 ft 11 kts 323°
2026-04-26 18:53 52.45688 9.69148 181 ft 7 kts
2026-04-26 18:54 52.45739 9.69144 181 ft 7 kts 345°
2026-04-26 18:54 52.45778 9.69103 182 ft 7 kts 317°
2026-04-26 18:54 52.45817 9.69047 181 ft 8 kts 319°
2026-04-26 18:54 52.45866 9.68989 180 ft 10 kts 324°
2026-04-26 18:55 52.45925 9.68920 180 ft 11 kts 323°
2026-04-26 18:55 52.46017 9.68805 180 ft 18 kts 321°
2026-04-26 18:55 52.46111 9.68682 182 ft 14 kts 322°
2026-04-26 18:55 52.46190 9.68615 183 ft 11 kts
2026-04-26 18:56 52.46238 9.68722 195 ft 13 kts 68°
2026-04-26 18:56 52.46272 9.68864 184 ft 14 kts 67°
2026-04-26 18:56 52.46308 9.69009 198 ft 13 kts 67°
2026-04-26 18:56 52.46343 9.69152 193 ft 14 kts 71°
2026-04-26 18:57 52.46376 9.69302 185 ft 13 kts 71°
2026-04-26 18:57 52.46395 9.69377 196 ft 3 kts 67°
2026-04-26 18:58 52.46411 9.69445 198 ft 12 kts 69°
2026-04-26 18:58 52.46447 9.69593 182 ft 15 kts 69°
2026-04-26 18:58 52.46485 9.69754 181 ft 15 kts 67°
2026-04-26 18:58 52.46537 9.69915 177 ft 13 kts 32°
2026-04-26 18:59 52.46553 9.69931 177 ft 0 kts 28°
2026-04-26 18:59 52.46569 9.69941 178 ft 4 kts 19°
2026-04-26 18:59 52.46591 9.69948 179 ft 2 kts
2026-04-26 18:59 52.46594 9.69948 179 ft 0 kts
2026-04-26 19:00 52.46632 9.69951 180 ft 11 kts
2026-04-26 19:00 52.46693 9.69913 182 ft 9 kts 292°
2026-04-26 19:00 52.46700 9.69838 181 ft 0 kts 270°
2026-04-26 19:01 52.46700 9.69833 181 ft 4 kts 271°
2026-04-26 19:01 52.46713 9.69405 181 ft 76 kts 273°
2026-04-26 19:01 52.46748 9.68117 185 ft 148 kts 272°
2026-04-26 19:02 52.46798 9.66232 483 ft 176 kts 273°
2026-04-26 19:02 52.46840 9.64134 991 ft 193 kts 272°
2026-04-26 19:02 52.46872 9.61871 1574 ft 203 kts 271°
2026-04-26 19:02 52.46883 9.60347 1967 ft 201 kts 271°
2026-04-26 19:03 52.46714 9.57159 2909 ft 222 kts 259°
2026-04-26 19:03 52.46286 9.54739 3725 ft 219 kts 250°
2026-04-26 19:03 52.45467 9.52634 3861 ft 223 kts 217°
2026-04-26 19:03 52.44158 9.51317 3862 ft 220 kts 208°
2026-04-26 19:04 52.42784 9.50232 3976 ft 220 kts 205°
2026-04-26 19:04 52.41404 9.49150 3993 ft 220 kts 207°
2026-04-26 19:04 52.40040 9.48007 3992 ft 220 kts 208°
2026-04-26 19:04 52.38690 9.46815 3993 ft 220 kts 209°
2026-04-26 19:05 52.36013 9.44358 3993 ft 221 kts 210°
2026-04-26 19:05 52.34678 9.43113 3994 ft 221 kts 210°
2026-04-26 19:05 52.33291 9.42117 3991 ft 221 kts 195°
2026-04-26 19:06 52.31712 9.41865 4010 ft 244 kts 179°
2026-04-26 19:06 52.29913 9.42073 4451 ft 266 kts 175°
2026-04-26 19:06 52.28081 9.42371 5544 ft 268 kts 175°
2026-04-26 19:06 52.26205 9.42675 6628 ft 275 kts 176°
2026-04-26 19:07 52.24273 9.42979 7573 ft 283 kts 176°
2026-04-26 19:07 52.22296 9.43282 8581 ft 289 kts 176°
2026-04-26 19:07 52.20239 9.43381 9528 ft 293 kts 187°
2026-04-26 19:07 52.18286 9.42574 10099 ft 295 kts 207°
2026-04-26 19:08 52.16489 9.40957 10280 ft 295 kts 217°
2026-04-26 19:08 52.14839 9.38975 10280 ft 296 kts 222°
2026-04-26 19:08 52.13274 9.36794 10289 ft 295 kts 225°
2026-04-26 19:08 52.11756 9.34556 10291 ft 294 kts 226°
2026-04-26 19:09 52.10243 9.32311 10371 ft 297 kts 225°
2026-04-26 19:09 52.08662 9.29994 10691 ft 317 kts 225°
2026-04-26 19:09 52.06969 9.27565 11420 ft 330 kts 224°
2026-04-26 19:09 52.05219 9.25105 12397 ft 335 kts 224°
2026-04-26 19:10 52.03433 9.22629 13426 ft 340 kts 223°
2026-04-26 19:10 52.01614 9.20126 14412 ft 344 kts 223°
2026-04-26 19:10 51.99775 9.17604 15354 ft 348 kts 223°
2026-04-26 19:10 51.97918 9.15060 16289 ft 351 kts 223°
2026-04-26 19:11 51.96044 9.12493 16992 ft 354 kts 223°
2026-04-26 19:11 51.94151 9.09898 17852 ft 358 kts 223°
2026-04-26 19:11 51.92243 9.07286 18770 ft 360 kts 223°
2026-04-26 19:11 51.90316 9.04647 19539 ft 364 kts 223°
2026-04-26 19:12 51.88373 9.01990 20061 ft 367 kts 223°
2026-04-26 19:12 51.86416 8.99315 20264 ft 369 kts 223°
2026-04-26 19:12 51.84450 8.96632 20284 ft 371 kts 223°
2026-04-26 19:12 51.82474 8.93940 20283 ft 372 kts 223°
2026-04-26 19:13 51.80496 8.91249 20288 ft 372 kts 223°
2026-04-26 19:13 51.78513 8.88553 20274 ft 372 kts 223°
2026-04-26 19:13 51.76528 8.85858 20273 ft 372 kts 223°
2026-04-26 19:13 51.74571 8.83204 20275 ft 372 kts 223°
2026-04-26 19:14 51.72589 8.80519 20267 ft 372 kts 223°
2026-04-26 19:14 51.70602 8.77830 20268 ft 372 kts 223°
2026-04-26 19:14 51.68617 8.75147 20266 ft 372 kts 223°
2026-04-26 19:14 51.67944 8.74239 20264 ft 372 kts 223°
2026-04-26 19:15 51.64642 8.69785 20261 ft 373 kts 223°
2026-04-26 19:15 51.62652 8.67104 20264 ft 373 kts 223°
2026-04-26 19:15 51.60658 8.64420 20267 ft 374 kts 223°
2026-04-26 19:15 51.58664 8.61741 20265 ft 374 kts 223°
2026-04-26 19:16 51.56668 8.59063 20264 ft 374 kts 223°
2026-04-26 19:16 51.54669 8.56383 20262 ft 374 kts 223°
2026-04-26 19:16 51.52676 8.53715 20269 ft 374 kts 223°
2026-04-26 19:16 51.50680 8.51047 20267 ft 374 kts 223°
2026-04-26 19:17 51.48681 8.48377 20265 ft 374 kts 223°
2026-04-26 19:17 51.47355 8.46607 20269 ft 374 kts 223°
2026-04-26 19:17 51.45356 8.43942 20272 ft 374 kts 223°
2026-04-26 19:17 51.43357 8.41278 20281 ft 374 kts 223°
2026-04-26 19:18 51.41369 8.38636 19964 ft 368 kts 223°
2026-04-26 19:18 51.39421 8.36053 19662 ft 359 kts 223°
2026-04-26 19:18 51.37511 8.33524 19274 ft 354 kts 223°
2026-04-26 19:18 51.35627 8.31028 18834 ft 350 kts 222°
2026-04-26 19:19 51.33759 8.28553 18347 ft 347 kts 222°
2026-04-26 19:19 51.31905 8.26101 17806 ft 345 kts 222°
2026-04-26 19:19 51.30056 8.23657 17252 ft 344 kts 222°
2026-04-26 19:19 51.28217 8.21228 16717 ft 342 kts 222°
2026-04-26 19:20 51.26392 8.18821 16207 ft 340 kts 222°
2026-04-26 19:20 51.25184 8.17229 15877 ft 339 kts 222°
2026-04-26 19:20 51.22760 8.14038 15192 ft 336 kts 222°
2026-04-26 19:20 51.20961 8.11672 14706 ft 335 kts 222°
2026-04-26 19:21 51.19188 8.09343 14214 ft 333 kts 222°
2026-04-26 19:21 51.17400 8.06999 13656 ft 333 kts 222°
2026-04-26 19:21 51.15616 8.04662 13142 ft 330 kts 222°
2026-04-26 19:21 51.13844 8.02345 12639 ft 328 kts 222°
2026-04-26 19:22 51.12083 8.00044 12143 ft 325 kts 222°
2026-04-26 19:22 51.10340 7.97768 11667 ft 323 kts 222°
2026-04-26 19:22 51.08607 7.95507 11194 ft 321 kts 223°
2026-04-26 19:22 51.06882 7.93261 10707 ft 319 kts 223°
2026-04-26 19:23 51.05172 7.91035 10357 ft 317 kts 223°
2026-04-26 19:23 51.03465 7.88813 10273 ft 318 kts 223°
2026-04-26 19:23 51.01757 7.86589 10267 ft 317 kts 223°
2026-04-26 19:23 51.00073 7.84404 10104 ft 307 kts 223°
2026-04-26 19:24 50.98445 7.82298 9865 ft 297 kts 223°
2026-04-26 19:24 50.96859 7.80248 9500 ft 291 kts 223°
2026-04-26 19:24 50.93775 7.76254 8645 ft 286 kts 223°
2026-04-26 19:25 50.92238 7.74263 8221 ft 284 kts 222°
2026-04-26 19:25 50.91224 7.72953 7943 ft 283 kts 222°
2026-04-26 19:25 50.89192 7.70327 7402 ft 280 kts 222°
2026-04-26 19:25 50.87691 7.68370 6993 ft 278 kts 224°
2026-04-26 19:26 50.86359 7.66239 6567 ft 275 kts 231°
2026-04-26 19:26 50.85133 7.63942 6149 ft 272 kts 232°
2026-04-26 19:26 50.83941 7.61626 5733 ft 270 kts 232°
2026-04-26 19:26 50.82772 7.59321 5327 ft 268 kts 233°
2026-04-26 19:27 50.81619 7.57018 4922 ft 266 kts 232°
2026-04-26 19:27 50.80482 7.54716 4483 ft 264 kts 232°
2026-04-26 19:27 50.79365 7.52417 4282 ft 263 kts 233°
2026-04-26 19:27 50.78244 7.50103 4129 ft 265 kts 233°
2026-04-26 19:28 50.77125 7.47820 3992 ft 258 kts 233°
2026-04-26 19:28 50.76061 7.45655 3978 ft 241 kts 232°
2026-04-26 19:28 50.75072 7.43636 3977 ft 224 kts 232°
2026-04-26 19:28 50.74141 7.41738 3898 ft 214 kts 233°
2026-04-26 19:29 50.73483 7.39720 3759 ft 205 kts 261°
2026-04-26 19:29 50.73526 7.37555 3658 ft 191 kts 279°
2026-04-26 19:29 50.73787 7.35537 3328 ft 187 kts 282°
2026-04-26 19:29 50.74115 7.33548 3033 ft 188 kts 291°
2026-04-26 19:30 50.74817 7.31807 2822 ft 187 kts 308°
2026-04-26 19:30 50.75646 7.30289 2489 ft 183 kts 315°
2026-04-26 19:30 50.76578 7.28972 2232 ft 175 kts 324°
2026-04-26 19:30 50.77227 7.28225 2083 ft 168 kts 327°
2026-04-26 19:31 50.78456 7.26776 1712 ft 164 kts 322°
2026-04-26 19:31 50.79290 7.25596 1481 ft 157 kts 319°
2026-04-26 19:31 50.80069 7.24450 1259 ft 147 kts 319°
2026-04-26 19:31 50.80788 7.23400 1059 ft 136 kts 320°
2026-04-26 19:32 50.81478 7.22405 937 ft 134 kts 321°
2026-04-26 19:32 50.82170 7.21412 891 ft 134 kts 319°
2026-04-26 19:32 50.82850 7.20409 817 ft 133 kts 320°
2026-04-26 19:32 50.83539 7.19425 724 ft 133 kts 320°
2026-04-26 19:33 50.84251 7.18394 636 ft 143 kts 318°
2026-04-26 19:33 50.84936 7.17396 487 ft 127 kts 321°
2026-04-26 19:33 50.85557 7.16494 348 ft 116 kts 321°
2026-04-26 19:33 50.86102 7.15725 296 ft 80 kts 318°
2026-04-26 19:34 50.86410 7.15280 271 ft 50 kts 319°
2026-04-26 19:34 50.86657 7.14927 264 ft 46 kts 317°
2026-04-26 19:34 50.86857 7.14561 258 ft 40 kts 294°
2026-04-26 19:34 50.86906 7.14226 259 ft 16 kts 285°
2026-04-26 19:35 50.86956 7.14037 253 ft 19 kts 317°
2026-04-26 19:35 50.87081 7.13962 253 ft 17 kts 356°
2026-04-26 19:35 50.87124 7.13864 250 ft 25 kts 290°
2026-04-26 19:35 50.87237 7.13647 244 ft 24 kts 313°
2026-04-26 19:36 50.87342 7.13467 240 ft 20 kts 300°
2026-04-26 19:36 50.87365 7.13328 238 ft 20 kts 281°
2026-04-26 19:36 50.87481 7.13118 235 ft 19 kts 317°
2026-04-26 19:36 50.87578 7.12976 233 ft 17 kts 317°
2026-04-26 19:37 50.87654 7.12865 233 ft 14 kts 317°
2026-04-26 19:37 50.87727 7.12766 233 ft 11 kts 320°
2026-04-26 19:37 50.87747 7.12740 234 ft 4 kts 320°
2026-04-26 19:37 50.87799 7.12663 233 ft 13 kts 316°
2026-04-26 19:38 50.87882 7.12613 233 ft 14 kts
2026-04-26 19:38 50.87958 7.12559 233 ft 11 kts 316°
2026-04-26 19:38 50.88016 7.12470 233 ft 12 kts 316°
2026-04-26 19:38 50.88074 7.12376 234 ft 11 kts 306°
2026-04-26 19:39 50.88103 7.12276 234 ft 10 kts 283°
2026-04-26 19:39 50.88145 7.12171 234 ft 12 kts 306°
2026-04-26 19:39 50.88196 7.12060 235 ft 13 kts 304°
2026-04-26 19:39 50.88191 7.11968 233 ft 8 kts 211°
2026-04-26 19:40 50.88175 7.11951 238 ft 0 kts 214°
2026-04-26 19:40 50.88172 7.11948 238 ft 0 kts 215°